Location: �chenoz-la-M�line
(47.6009°N, 6.1354°E)
Time: 16:43:54
(UTC+00:00)

Cosmos 1726 Rocket - Pass Details

Date: 27 January 2021
Orbit: 604 x 628 km, 82.5° (Epoch: 04 March)

Event Time Altitude Azimuth Distance (km) Brightness Sun altitude
Rises 06:11:48 0° 203° (SSW) 2,845 6.9 -9.6°
Reaches altitude 10° 06:14:04 10° 209° (SSW) 1,947 6.0 -9.3°
Maximum altitude 06:18:13 47° 284° (WNW) 808 3.7 -8.6°
Drops below altitude 10° 06:22:26 10° 359° (N) 1,967 5.9 -7.9°
Sets 06:24:44 0° 5° (N) 2,878 6.8 -7.6°
